Content
SEND FEEDBACK

Daily
Averages
Monthly
Summary
United States of America

SOUTHPORT, NORTH CAROLINA


Home > North America > United States > North Carolina
Elevation: 38 feet     Latitude: 34 00N     Longitude: 078 01W

WEATHER
 
SELECT A DAY
Number of Records: 136,557;   Date Range: 8/21/01 - 8/12/14
 
SHARE

PRINT THIS DATA

[ ← Previous Day ]
WEATHER ALMANAC - MAY 17, 2013
[ Next Day → ]
[ °C ]   °F
Weather ElementAverageHighLow
Temperature72.8 °F80.2 °F (2:15 pm)66.2 °F (5:35 am)
Dewpoint65.2 °F67.6 °F (3:55 pm)60.4 °F (8:35 am)
Humidity77.9 %94 % (5:15 am)60 % (9:15 am)
Barometer30.08 in30.13 in (10:55 pm)30.02 in (2:35 am)
Wind Speed7 mph11.5 mph (12:35 pm)
Wind Gust16.1 mph (6:55 pm)
Weather ElementAverage
Visibility9.4 mi
Wind DirectionWSW (235.4 °)

Weather ElementTotal
Precipitation---
Cooling Degree Days8.2 (Base 65)
Growing Degree Days23.2 (Base 50)
Averaged from 70 records on May 17, 2013
WEATHER CONDITIONS BREAKOUT
WIND DIRECTION BREAKOUT
WEATHER BY HOUR - MAY 17, 2013
[ °C ]   °F
Local TimeTemperatureDewpointHumidityBarometerVisibilityWind DirectionWind SpeedGust SpeedPrecipitationEventsConditions
12:35 AM70.7 °F65.3 °F83 %30.03 in10.0 miWest (260°)6.9 mphClear
12:55 AM70.7 °F64.9 °F82 %30.03 in10.0 miWest (260°)6.9 mphClear
1:15 AM70.7 °F65.3 °F83 %30.03 in10.0 miWSW (250°)8.1 mphClear
1:35 AM70.0 °F65.5 °F86 %30.03 in10.0 miWSW (250°)8.1 mphClear
1:55 AM68.9 °F65.7 °F89 %30.03 in10.0 miWSW (250°)5.8 mphClear
2:15 AM68.9 °F65.5 °F89 %30.03 in10.0 miWSW (250°)6.9 mphClear
2:35 AM68.4 °F65.8 °F92 %30.02 in10.0 miSW (230°)6.9 mphClear
2:55 AM68.0 °F65.7 °F92 %30.02 in10.0 miWSW (240°)6.9 mphClear
3:15 AM68.0 °F65.8 °F93 %30.03 in10.0 miWSW (250°)3.5 mphClear
3:35 AM68.0 °F65.7 °F92 %30.02 in7.0 miWSW (240°)6.9 mphClear
3:55 AM67.6 °F65.5 °F93 %30.03 in7.0 miWSW (240°)6.9 mphClear
4:15 AM67.3 °F65.3 °F93 %30.03 in7.0 miSW (230°)5.8 mphClear
4:35 AM67.1 °F64.9 °F93 %30.04 in7.0 miWSW (250°)4.6 mphClear
4:55 AM67.1 °F64.9 °F93 %30.05 in7.0 miWest (260°)4.6 mphClear
5:15 AM66.4 °F64.6 °F94 %30.06 in7.0 miWest (260°)3.5 mphClear
5:35 AM66.2 °F64.4 °F94 %30.06 in7.0 miWSW (240°)3.5 mphClear
5:55 AM66.2 °F64.6 °F94 %30.06 in7.0 miWSW (240°)3.5 mphClear
6:15 AM66.2 °F64.4 °F94 %30.07 in7.0 miWSW (250°)3.5 mphClear
6:35 AM66.2 °F64.4 °F94 %30.08 in5.0 miWest (260°)3.5 mphClear
6:55 AM66.9 °F65.1 °F94 %30.09 in5.0 miWest (260°)3.5 mphClear
7:15 AM67.6 °F65.3 °F92 %30.09 in5.0 miWest (260°)3.5 mphClear
7:35 AM68.9 °F64.2 °F85 %30.10 in7.0 miWest (260°)5.8 mphClear
7:55 AM70.9 °F61.9 °F73 %30.10 in10.0 miWest (260°)6.9 mphClear
8:15 AM72.5 °F61.0 °F67 %30.10 in10.0 miWest (260°)10.4 mphClear
8:35 AM72.9 °F60.4 °F65 %30.11 in10.0 miWest (260°)9.2 mphClear
8:55 AM75.6 °F61.3 °F61 %30.11 in10.0 miWSW (250°)6.9 mphClear
9:15 AM76.1 °F61.3 °F60 %30.11 in10.0 miWSW (250°)9.2 mphClear
9:35 AM76.1 °F61.9 °F61 %30.11 in10.0 miWSW (240°)8.1 mphClear
9:55 AM76.3 °F63.0 °F63 %30.11 in10.0 miSW (230°)9.2 mphClear
10:15 AM77.0 °F63.9 °F64 %30.11 in10.0 miWSW (240°)8.1 mphClear
10:35 AM77.0 °F64.4 °F65 %30.11 in10.0 miSW (230°)9.2 mphClear
10:55 AM77.0 °F64.0 °F64 %30.11 in10.0 miWSW (240°)10.4 mphClear
11:15 AM77.5 °F64.4 °F64 %30.11 in10.0 miSW (230°)9.2 mphClear
11:35 AM78.1 °F64.4 °F63 %30.11 in10.0 miSW (230°)10.4 mphClear
11:55 AM79.0 °F64.6 °F61 %30.11 in10.0 miSW (230°)10.4 mphClear
12:15 PM79.3 °F64.9 °F61 %30.11 in10.0 miSSW (210°)6.9 mphClear
12:35 PM79.3 °F64.8 °F61 %30.11 in10.0 miSW (230°)11.5 mphClear
12:55 PM79.7 °F64.6 °F60 %30.10 in10.0 miSW (220°)10.4 mphClear
1:15 PM79.3 °F64.6 °F60 %30.10 in10.0 miSW (230°)11.5 mphClear
1:35 PM79.7 °F64.9 °F61 %30.10 in10.0 miSW (230°)11.5 mphClear
1:55 PM79.9 °F65.1 °F61 %30.10 in10.0 miSW (230°)9.2 mphClear
2:15 PM80.2 °F65.3 °F60 %30.09 in10.0 miSW (220°)8.1 mphClear
2:35 PM79.9 °F65.3 °F61 %30.09 in10.0 miSSW (210°)8.1 mphClear
3:15 PM79.9 °F66.4 °F63 %30.08 in10.0 miSW (220°)8.1 mphClear
3:35 PM79.5 °F66.7 °F65 %30.08 in10.0 miSW (220°)8.1 mphClear
3:55 PM79.2 °F67.6 °F68 %30.08 in10.0 miSSW (210°)6.9 mphClear
4:15 PM77.9 °F66.9 °F69 %30.08 in10.0 miSSW (210°)8.1 mphClear
4:35 PM77.5 °F66.7 °F69 %30.08 in10.0 miSW (220°)9.2 mphClear
4:55 PM77.5 °F67.3 °F71 %30.08 in10.0 miSSW (210°)8.1 mphClear
5:15 PM76.8 °F67.5 °F73 %30.08 in10.0 miSW (230°)5.8 mphClear
5:35 PM76.5 °F67.3 °F73 %30.08 in10.0 miSW (220°)6.9 mphClear
5:55 PM76.1 °F67.1 °F74 %30.08 in10.0 miSW (220°)8.1 mphClear
6:15 PM75.4 °F67.3 °F76 %30.08 in10.0 miSW (220°)5.8 mphClear
6:35 PM74.7 °F66.7 °F76 %30.08 in10.0 miSW (220°)5.8 mphClear
6:55 PM73.8 °F66.7 °F79 %30.08 in10.0 miSW (220°)5.8 mph16.1 mphClear
7:15 PM72.5 °F66.0 °F80 %30.08 in10.0 miWSW (240°)8.1 mphClear
7:35 PM72.0 °F66.2 °F82 %30.08 in10.0 miWSW (240°)5.8 mphClear
7:55 PM70.9 °F65.7 °F83 %30.08 in10.0 miSW (220°)4.6 mphClear
8:15 PM70.7 °F65.7 °F84 %30.09 in10.0 miSW (230°)5.8 mphClear
8:35 PM70.2 °F65.7 °F86 %30.09 in10.0 miSW (230°)5.8 mphClear
8:55 PM70.2 °F65.5 °F85 %30.10 in10.0 miSW (220°)4.6 mphClear
9:15 PM70.2 °F65.5 °F85 %30.11 in10.0 miSW (220°)4.6 mphClear
9:35 PM70.0 °F65.7 °F86 %30.11 in10.0 miSW (230°)5.8 mphClear
9:55 PM69.8 °F65.8 °F87 %30.11 in10.0 miSW (230°)5.8 mphClear
10:15 PM69.8 °F66.2 °F88 %30.12 in10.0 miSW (230°)6.9 mphClear
10:35 PM69.8 °F66.0 °F88 %30.12 in10.0 miSW (230°)5.8 mphClear
10:55 PM69.8 °F66.2 °F88 %30.13 in10.0 miSW (220°)5.8 mphClear
11:15 PM69.8 °F66.2 °F88 %30.13 in10.0 miSW (230°)6.9 mphClear
11:35 PM69.8 °F66.0 °F88 %30.12 in10.0 miSW (230°)5.8 mphClear
11:55 PM69.4 °F65.7 °F88 %30.12 in10.0 miWSW (240°)5.8 mphClear
Hourly data recorded from KSUT, located miles away from Southport, North Carolina







STORIES FROM OUR PARTNERS